This demonstration page uses our WeatherBlox Daily Observations layout. Learn more.

Left ArrowRight Arrow

40.92945, -100.16068

Hourly Observations for October 13, 2018

Temp ( °F °C ) Dew Point ( °F °C ) Humidity (%) Winds ( mph kmh ) Pressure ( in mb ) Visibility ( mi km ) Precip ( " mm )
12:15 am 00:15 Clear 39 4 32 -0.2 74 74 S 3 6 29.94 1014 10 16.0934 0 0
12:35 am 00:35 Clear 39 4 31 -0.7 72 72 S 6 9 29.94 1014 10 16.0934 0 0
12:55 am 00:55 Clear 38 3.3 31 -0.6 76 76 S 7 11 29.94 1014 10 16.0934 0 0
1:15 am 01:15 Clear 39 3.9 31 -0.7 72 72 S 8 13 29.94 1014 10 16.0934 0 0
1:35 am 01:35 Clear 39 4 31 -0.6 72 72 S 9 15 29.94 1014 10 16.0934 0 0
1:55 am 01:55 Clear 40 4.7 31 -0.5 69 69 S 9 15 29.94 1014 10 16.0934 0 0
2:15 am 02:15 Clear 42 5.3 31 -0.6 66 66 SSE 7 11 29.94 1014 10 16.0934 0 0
2:35 am 02:35 Clear 43 5.9 30 -1 62 62 Calm 29.91 1013 10 16.0934 0 0
2:55 am 02:55 Clear 43 6 31 -0.5 63 63 SSW 5 7 29.91 1013 10 16.0934 0 0
3:15 am 03:15 Clear 44 6.6 31 -0.5 61 61 SSW 6 9 29.88 1012 10 16.0934 0 0
3:35 am 03:35 Clear 45 7.2 31 -0.5 58 58 SSW 12 19 29.88 1012 10 16.0934 0 0
3:55 am 03:55 Clear 45 7.3 31 -0.4 58 58 SSW 8 13 29.88 1012 10 16.0934 0 0
4:15 am 04:15 Clear 45 7.2 32 -0.1 60 60 SSW 7 11 29.85 1011 10 16.0934 0 0
4:35 am 04:35 Clear 45 7.1 32 0.1 61 61 SSW 10 17 29.85 1011 10 16.0934 0 0
4:55 am 04:55 Clear 44 6.4 32 0.2 65 65 SW 3 6 29.85 1011 10 16.0934 0 0
5:15 am 05:15 Clear 43 6 33 0.5 68 68 W 3 6 29.85 1011 10 16.0934 0 0
5:35 am 05:35 Clear 43 5.9 33 0.3 68 68 WSW 3 6 29.85 1011 10 16.0934 0 0
5:55 am 05:55 Clear 40 4.3 32 0.1 74 74 Calm 29.88 1012 10 16.0934 0 0
6:15 am 06:15 Clear 39 3.7 32 0.1 78 78 Calm 29.88 1012 10 16.0934 0 0
6:35 am 06:35 Clear 37 2.9 32 -0.1 81 81 Calm 29.88 1012 10 16.0934 0 0
6:55 am 06:55 Clear 39 3.8 32 0.1 77 77 Calm 29.88 1012 10 16.0934 0 0
7:15 am 07:15 Clear 37 2.5 31 -0.5 81 81 Calm 29.85 1011 10 16.0934 0 0
7:35 am 07:35 Clear 36 2.1 32 0 86 86 SE 3 6 29.88 1012 10 16.0934 0 0
7:55 am 07:55 Sunny 36 2.3 32 0 85 85 SSE 3 6 29.85 1011 10 16.0934 0 0
8:15 am 08:15 Partly Cloudy 38 3.4 34 0.9 84 84 SE 6 9 29.85 1011 10 16.0934 0 0
8:35 am 08:35 Sunny 39 3.9 34 1.3 83 83 SE 5 7 29.85 1011 10 16.0934 0 0
8:55 am 08:55 Mostly Cloudy 41 5.1 36 2.1 81 81 SE 5 7 29.83 1010 10 16.0934 0 0
9:15 am 09:15 Mostly Cloudy 44 6.5 37 2.6 76 76 ESE 3 6 29.83 1010 10 16.0934 0 0
9:35 am 09:35 Mostly Cloudy 46 7.6 38 3.2 74 74 Calm 29.83 1010 10 16.0934 0 0
9:55 am 09:55 Cloudy 46 8 39 3.7 75 75 NNW 5 7 29.85 1011 10 16.0934 0 0
10:15 am 10:15 Cloudy 46 7.7 39 4 78 78 NW 3 6 29.85 1011 10 16.0934 0 0
10:35 am 10:35 Cloudy 47 8.3 39 4 75 75 Calm 29.83 1010 10 16.0934 0 0
10:55 am 10:55 Mostly Cloudy 50 10 41 5.1 72 72 SSW 6 9 29.83 1010 10 16.0934 0 0
11:15 am 11:15 Partly Cloudy 54 12.3 41 5.2 62 62 SSE 8 13 29.77 1008 10 16.0934 0 0
11:35 am 11:35 Partly Cloudy 57 13.8 43 5.9 59 59 SSW 14 22 29.77 1008 10 16.0934 0 0
11:55 am 11:55 Mostly Cloudy 59 15.2 43 6.3 56 56 S 10 17 29.74 1007 10 16.0934 0 0
12:15 pm 12:15 Mostly Cloudy 58 14.6 43 6 57 57 S 13 20 29.74 1007 10 16.0934 0 0
12:35 pm 12:35 Cloudy 60 15.3 43 6.2 55 55 SW 8 13 29.74 1007 10 16.0934 0 0
12:55 pm 12:55 Mostly Cloudy 62 16.6 44 6.9 53 53 SW 13 20 29.71 1006 10 16.0934 0 0
1:15 pm 13:15 Cloudy 61 16.2 44 6.6 53 53 SSW 10 17 29.71 1006 10 16.0934 0 0
1:35 pm 13:35 Cloudy 61 16.3 44 6.5 53 53 SW 6 9 29.71 1006 10 16.0934 0 0
1:55 pm 13:55 Cloudy 62 16.5 44 6.8 53 53 WSW 5 7 29.71 1006 10 16.0934 0 0
2:15 pm 14:15 Mostly Cloudy 62 16.5 45 7 54 54 Calm 29.71 1006 10 16.0934 0 0
2:35 pm 14:35 Mostly Cloudy 64 17.7 46 7.6 52 52 Calm 29.65 1004 10 16.0934 0 0
2:55 pm 14:55 Cloudy 63 17 44 6.6 51 51 Calm 29.68 1005 10 16.0934 0 0
3:15 pm 15:15 Cloudy 63 17 45 7.2 53 53 Calm 29.68 1005 10 16.0934 0 0
3:35 pm 15:35 Cloudy with Haze 63 17.3 45 7.4 52 52 Calm 29.65 1004 3 4.82802 0 0
3:55 pm 15:55 Cloudy 63 17.2 46 8 55 55 E 6 9 29.65 1004 10 16.0934 0 0
4:15 pm 16:15 Cloudy 62 16.4 48 8.9 61 61 ENE 6 9 29.68 1005 10 16.0934 0 0
4:35 pm 16:35 Cloudy with Haze 60 15.7 47 8.3 62 62 ENE 8 13 29.68 1005 5 8.0467 0 0
4:55 pm 16:55 Cloudy with Haze 60 15.3 46 8 62 62 NE 10 17 29.68 1005 2 3.21868 0 0
5:15 pm 17:15 Cloudy 58 14.7 45 7.1 61 61 NE 14 22 29.68 1005 10 16.0934 0 0
5:35 pm 17:35 Cloudy with Light Rain 54 12.3 47 8.2 76 76 ENE 16 26 29.74 1007 7 11.26538 0 0
5:55 pm 17:55 Cloudy with Light Rain 53 11.4 47 8.2 81 81 ENE 16 26 29.74 1007 7 11.26538 0 0
6:15 pm 18:15 Cloudy with Light Rain 52 10.9 45 7.4 79 79 ENE 15 24 29.8 1009 7 11.26538 0 0
6:35 pm 18:35 Cloudy with Drizzle 51 10.4 45 7.2 81 81 ENE 16 26 29.8 1009 7 11.26538 0 0
6:55 pm 18:55 Cloudy 50 10 44 6.7 80 80 ENE 17 28 29.8 1009 10 16.0934 0 0
7:15 pm 19:15 Cloudy 50 10 44 6.6 80 80 ENE 8 13 29.8 1009 10 16.0934 0 0
7:35 pm 19:35 Cloudy with Light Rain 50 9.9 44 6.7 81 81 ENE 9 15 29.83 1010 10 16.0934 0 0
7:55 pm 19:55 Cloudy with Drizzle 49 9.3 44 6.7 84 84 ENE 13 20 29.83 1010 5 8.0467 0 0
8:15 pm 20:15 Cloudy with Light Rain 48 8.8 44 6.9 88 88 ENE 14 22 29.85 1011 3 4.82802 0.02 0.508
8:35 pm 20:35 Cloudy with Light Rain 47 8.5 45 7.1 91 91 ENE 14 22 29.85 1011 3 4.82802 0.02 0.508
8:55 pm 20:55 Cloudy with Light Rain 47 8.5 45 7.2 92 92 NE 13 20 29.91 1013 4 6.43736 0.03 0.762
9:15 pm 21:15 Cloudy with Mist and Fog 47 8.5 45 7.2 92 92 NE 15 24 29.91 1013 5 8.0467 0 0
9:35 pm 21:35 Cloudy with Light Rain 47 8.5 45 7.2 92 92 NNE 15 24 29.91 1013 5 8.0467 0 0
9:55 pm 21:55 Cloudy with Drizzle 47 8.1 44 6.8 92 92 NE 15 24 29.91 1013 5 8.0467 0.01 0.254
10:15 pm 22:15 Cloudy with Drizzle 46 8 44 6.7 92 92 NNE 13 20 29.94 1014 5 8.0467 0 0
10:35 pm 22:35 Cloudy with Drizzle 45 7 42 5.7 92 92 NNE 18 30 29.94 1014 4 6.43736 0.01 0.254
10:55 pm 22:55 Cloudy with Drizzle 44 6.4 41 5 91 91 NNE 13 20 29.94 1014 5 8.0467 0.02 0.508
11:15 pm 23:15 Cloudy with Drizzle 43 6 40 4.5 90 90 NNE 18 30 30 1016 7 11.26538 0.01 0.254
11:35 pm 23:35 Cloudy with Light Rain 42 5.6 39 4.1 90 90 NNE 16 26 30 1016 7 11.26538 0.01 0.254
11:55 pm 23:55 Cloudy 42 5.5 39 4 90 90 NNE 14 22 30 1016 7 11.26538 0.01 0.254

Powered by AerisWeather